When you browse on this site, cookies collect data to enhance your experience and personalize the content and advertising you see.
Visit our Privacy Policy to learn more. By continuing to use the site, you agree to this use of cookies and data.
  • In Romania
  • List of Countries
  • For 7 days
  • Water Temperature
  • Satellite Maps
  • Weather Map
  • Weather Widgets
  • user-avatar
    Login

    Hourly Weather Haro

    Today, 19 July, Friday

    Time Temperature Precipitation Wind Pressure Humidity
    00:00 +14°C° 0 mm 0 mps 721 mmHg 85%
    01:00 +13°C° 0 mm 0 mps 721 mmHg 84%
    02:00 +13°C° 0 mm 0 mps 721 mmHg 83%
    03:00 +13°C° 0 mm 0 mps 721 mmHg 82%
    04:00 +13°C° 0 mm 0 mps 721 mmHg 79%
    05:00 +14°C° 0 mm 0 mps 721 mmHg 77%
    06:00 +15°C° 0 mm 0 mps 721 mmHg 74%
    07:00 +18°C° 0 mm 0 mps 721 mmHg 64%
    08:00 +22°C° 0 mm 1 mps 721 mmHg 54%
    09:00 +25°C° 0 mm 1 mps 721 mmHg 45%
    10:00 +27°C° 0 mm 1 mps 721 mmHg 41%
    11:00 +29°C° 0 mm 2 mps 721 mmHg 37%
    12:00 +31°C° 0 mm 3 mps 721 mmHg 33%
    13:00 +33°C° 0 mm 3 mps 720 mmHg 33%
    14:00 +33°C° 0 mm 3 mps 720 mmHg 32%
    15:00 +34°C° 0 mm 3 mps 719 mmHg 32%
    16:00 +33°C° 0 mm 3 mps 719 mmHg 35%
    17:00 +33°C° 0 mm 3 mps 719 mmHg 38%
    18:00 +31°C° 0 mm 2 mps 718 mmHg 42%
    19:00 +28°C° 0 mm 2 mps 718 mmHg 49%
    20:00 +26°C° 0 mm 1 mps 718 mmHg 57%
    21:00 +23°C° 0 mm 1 mps 719 mmHg 64%
    22:00 +22°C° 0 mm 1 mps 719 mmHg 71%
    23:00 +21°C° 0 mm 1 mps 719 mmHg 77%

    Tomorrow, 20 July, Saturday

    Time Temperature Precipitation Wind Pressure Humidity
    00:00 +19°C° 0 mm 1 mps 719 mmHg 84%
    01:00 +19°C° 0 mm 1 mps 719 mmHg 86%
    02:00 +18°C° 0 mm 1 mps 719 mmHg 88%
    03:00 +16°C° 0 mm 0 mps 719 mmHg 91%
    04:00 +16°C° 0 mm 0 mps 719 mmHg 90%
    05:00 +16°C° 0 mm 0 mps 719 mmHg 88%
    06:00 +17°C° 0 mm 0 mps 719 mmHg 87%
    07:00 +21°C° 0 mm 1 mps 720 mmHg 79%
    08:00 +24°C° 0 mm 1 mps 720 mmHg 70%
    09:00 +26°C° 0 mm 1 mps 721 mmHg 62%
    10:00 +28°C° 0 mm 1 mps 721 mmHg 56%
    11:00 +30°C° 0 mm 2 mps 721 mmHg 50%
    12:00 +32°C° 0 mm 2 mps 722 mmHg 44%
    13:00 +34°C° 0 mm 3 mps 721 mmHg 42%
    14:00 +34°C° 0 mm 3 mps 721 mmHg 41%
    15:00 +35°C° 0 mm 4 mps 721 mmHg 40%
    16:00 +32°C° 0 mm 4 mps 721 mmHg 48%
    17:00 +29°C° 0 mm 4 mps 721 mmHg 55%
    18:00 +27°C° 0 mm 4 mps 721 mmHg 63%
    19:00 +24°C° 0 mm 3 mps 721 mmHg 71%
    20:00 +21°C° 0 mm 2 mps 722 mmHg 79%
    21:00 +18°C° 0 mm 2 mps 722 mmHg 87%
    22:00 +19°C° 0 mm 1 mps 722 mmHg 90%
    23:00 +18°C° 0 mm 1 mps 722 mmHg 92%

    Day after tomorrow, 21 July, Sunday

    Time Temperature Precipitation Wind Pressure Humidity
    00:00 +16°C° 0 mm 1 mps 722 mmHg 94%
    01:00 +16°C° 0 mm 1 mps 722 mmHg 94%
    02:00 +16°C° 0 mm 1 mps 722 mmHg 95%
    03:00 +16°C° 0 mm 1 mps 722 mmHg 95%
    04:00 +16°C° 0 mm 1 mps 722 mmHg 93%
    05:00 +18°C° 0 mm 1 mps 722 mmHg 92%
    06:00 +18°C° 0 mm 1 mps 723 mmHg 90%
    07:00 +21°C° 0 mm 1 mps 723 mmHg 81%
    08:00 +23°C° 0 mm 1 mps 723 mmHg 73%
    09:00 +25°C° 0 mm 1 mps 723 mmHg 65%
    10:00 +27°C° 0 mm 2 mps 723 mmHg 58%
    11:00 +29°C° 0 mm 2 mps 724 mmHg 51%
    12:00 +33°C° 0 mm 3 mps 724 mmHg 45%
    13:00 +34°C° 0 mm 3 mps 723 mmHg 42%
    14:00 +35°C° 0 mm 4 mps 723 mmHg 39%
    15:00 +36°C° 0 mm 4 mps 723 mmHg 36%
    16:00 +35°C° 0.1 mm 4 mps 723 mmHg 40%
    17:00 +34°C° 0.1 mm 4 mps 723 mmHg 44%
    18:00 +33°C° 0.1 mm 3 mps 723 mmHg 49%
    19:00 +29°C° 0.9 mm 3 mps 724 mmHg 61%
    20:00 +26°C° 0.9 mm 2 mps 724 mmHg 74%
    21:00 +23°C° 0.9 mm 1 mps 724 mmHg 86%
    22:00 +22°C° 0 mm 1 mps 724 mmHg 87%
    23:00 +22°C° 0 mm 1 mps 724 mmHg 89%

    22 July, Monday

    Time Temperature Precipitation Wind Pressure Humidity
    00:00 +22°C° 0 mm 1 mps 724 mmHg 90%
    01:00 +21°C° 0 mm 1 mps 724 mmHg 89%
    02:00 +19°C° 0 mm 0 mps 723 mmHg 89%
    03:00 +19°C° 0 mm 0 mps 723 mmHg 88%
    04:00 +19°C° 0 mm 0 mps 723 mmHg 86%
    05:00 +21°C° 0 mm 1 mps 723 mmHg 84%
    06:00 +22°C° 0 mm 1 mps 723 mmHg 82%
    07:00 +24°C° 0 mm 1 mps 723 mmHg 71%
    08:00 +26°C° 0 mm 2 mps 723 mmHg 60%
    09:00 +29°C° 0 mm 3 mps 723 mmHg 50%
    10:00 +31°C° 0 mm 3 mps 723 mmHg 44%
    11:00 +34°C° 0 mm 4 mps 723 mmHg 38%
    12:00 +37°C° 0 mm 4 mps 723 mmHg 32%
    13:00 +37°C° 0 mm 4 mps 723 mmHg 30%
    14:00 +38°C° 0 mm 4 mps 722 mmHg 28%
    15:00 +40°C° 0 mm 4 mps 722 mmHg 25%
    16:00 +35°C° 0.3 mm 4 mps 722 mmHg 35%
    17:00 +31°C° 0.3 mm 3 mps 721 mmHg 45%
    18:00 +27°C° 0.3 mm 3 mps 721 mmHg 55%
    19:00 +26°C° 0.1 mm 3 mps 721 mmHg 57%
    20:00 +26°C° 0.1 mm 2 mps 722 mmHg 59%
    21:00 +25°C° 0.1 mm 1 mps 722 mmHg 62%
    22:00 +24°C° 0 mm 1 mps 722 mmHg 62%
    23:00 +24°C° 0 mm 1 mps 722 mmHg 62%

    23 July, Tuesday

    Time Temperature Precipitation Wind Pressure Humidity
    00:00 +23°C° 0 mm 1 mps 721 mmHg 62%
    01:00 +23°C° 0 mm 1 mps 721 mmHg 63%
    02:00 +21°C° 0 mm 2 mps 721 mmHg 64%
    03:00 +21°C° 0 mm 2 mps 720 mmHg 64%
    04:00 +21°C° 0 mm 2 mps 720 mmHg 64%
    05:00 +21°C° 0 mm 2 mps 720 mmHg 63%
    06:00 +22°C° 0 mm 1 mps 720 mmHg 63%
    07:00 +25°C° 0 mm 2 mps 720 mmHg 55%
    08:00 +27°C° 0 mm 3 mps 720 mmHg 48%
    09:00 +30°C° 0 mm 3 mps 721 mmHg 40%
    10:00 +33°C° 0 mm 3 mps 721 mmHg 35%
    11:00 +36°C° 0 mm 3 mps 721 mmHg 30%
    12:00 +38°C° 0 mm 3 mps 721 mmHg 25%
    13:00 +38°C° 0 mm 3 mps 720 mmHg 25%
    14:00 +38°C° 0 mm 2 mps 720 mmHg 25%
    15:00 +38°C° 0 mm 2 mps 719 mmHg 25%
    16:00 +37°C° 0 mm 2 mps 719 mmHg 29%
    17:00 +36°C° 0 mm 3 mps 719 mmHg 34%
    18:00 +34°C° 0 mm 3 mps 719 mmHg 39%
    19:00 +30°C° 0 mm 2 mps 719 mmHg 52%
    20:00 +27°C° 0 mm 2 mps 719 mmHg 65%
    21:00 +23°C° 0 mm 2 mps 719 mmHg 78%
    22:00 +21°C° 0 mm 2 mps 719 mmHg 82%
    23:00 +21°C° 0 mm 1 mps 719 mmHg 86%

    24 July, Wednesday

    Time Temperature Precipitation Wind Pressure Humidity
    00:00 +20°C° 0 mm 1 mps 719 mmHg 89%
    01:00 +20°C° 0 mm 1 mps 718 mmHg 88%
    02:00 +20°C° 0 mm 1 mps 718 mmHg 87%
    03:00 +20°C° 0 mm 1 mps 717 mmHg 86%
    04:00 +20°C° 0 mm 1 mps 717 mmHg 83%
    05:00 +21°C° 0 mm 1 mps 717 mmHg 80%
    06:00 +21°C° 0 mm 1 mps 718 mmHg 77%
    07:00 +23°C° 0 mm 1 mps 718 mmHg 67%
    08:00 +25°C° 0 mm 2 mps 718 mmHg 58%
    09:00 +27°C° 0 mm 2 mps 718 mmHg 49%
    10:00 +29°C° 0 mm 2 mps 718 mmHg 44%
    11:00 +31°C° 0 mm 3 mps 718 mmHg 38%
    12:00 +34°C° 0 mm 3 mps 718 mmHg 33%
    13:00 +35°C° 0 mm 3 mps 718 mmHg 32%
    14:00 +35°C° 0 mm 3 mps 717 mmHg 30%
    15:00 +36°C° 0 mm 3 mps 717 mmHg 28%
    16:00 +33°C° 0 mm 3 mps 716 mmHg 41%
    17:00 +29°C° 0 mm 3 mps 716 mmHg 54%
    18:00 +26°C° 0 mm 3 mps 715 mmHg 67%
    19:00 +24°C° 0.4 mm 3 mps 715 mmHg 74%
    20:00 +22°C° 0.4 mm 3 mps 716 mmHg 81%
    21:00 +20°C° 0.4 mm 2 mps 716 mmHg 88%
    22:00 +20°C° 0.1 mm 2 mps 716 mmHg 90%
    23:00 +20°C° 0.1 mm 1 mps 716 mmHg 93%
    Show more